Home   Weather   Green Bay   Past weeks
Flag for USA

Past Weather in Green Bay, Wisconsin, USA — Yesterday and Last 2 Weeks

Now
91 °F

Sunny.


Feels Like: 103 °F
Forecast: 89 / 74 °F
Wind: 6 mph from Southwest

Location: Austin Straubel International Airport

Current Time: Jul 19, 2019 at 4:40:58 pm

Latest Report: Jul 19, 2019 at 3:53 pm


Visibility: 10 mi

Pressure: 29.75 "Hg

Humidity: 61%

Dew Point: 76 °F

Location of Green BayLocation

Past Weather in Green Bay — Graph

°F

Green Bay Temperature Yesterday

Maximum temperature yesterday: 83 °F (at 5:53 pm)
Minimum temperature yesterday: 68 °F (at 12:53 am)
Average temperature yesterday: 76 °F

High & Low Weather Summary for the Past Weeks

 TemperatureHumidityPressure
High89 °F (Jul 10, 3:53 pm)97% (Jul 5, 2:53 am)30.17 "Hg (Jul 5, 2:53 am)
Low55 °F (Jul 7, 4:53 am)37% (Jul 11, 3:53 pm)29.67 "Hg (Jul 19, 2:53 am)
Average74 °F72%29.94 "Hg
* Reported Jul 4 2:53 pm — Jul 19 2:53 pm, Green Bay. Weather by CustomWeather, © 2019

Note: Actual official high and low records may vary slightly from our data, if they occured in-between our weather recording intervals... More about our weather records

Advertising

Green Bay Weather History for the Previous 24 Hours

Scroll right to see more
 ConditionsComfort  
Time TempWeatherWind HumidityBarometerVisibility
2:53 pm
Fri, Jul 19
88 °FScattered clouds.10 mph65%29.76 "Hg10 mi
1:53 pm89 °FSunny.7 mph63%29.76 "Hg10 mi
12:53 pm88 °FSunny.7 mph65%29.77 "Hg10 mi
12:07 pm86 °FScattered clouds.6 mph67%29.77 "Hg10 mi
11:53 am86 °FPartly sunny.5 mph65%29.76 "Hg10 mi
11:38 am87 °FPartly sunny.6 mph65%29.78 "Hg10 mi
10:53 am86 °FPassing clouds.7 mph67%29.76 "Hg10 mi
9:53 am82 °FSunny.9 mph74%29.75 "Hg10 mi
8:53 am79 °FSunny.9 mph79%29.74 "Hg10 mi
7:53 am77 °FSunny.6 mph85%29.72 "Hg10 mi
6:53 am76 °FSunny.6 mph91%29.72 "Hg10 mi
5:53 am76 °FFog.7 mph97%29.72 "Hg6 mi
5:06 am77 °FPassing clouds.No wind94%29.72 "Hg7 mi
4:53 am77 °FPassing clouds.7 mph94%29.70 "Hg8 mi
3:53 am77 °FPassing clouds.No wind90%29.68 "Hg10 mi
3:28 am77 °FThundershowers. Fog.12 mph90%29.71 "Hg6 mi
2:53 am78 °FPassing clouds.No wind93%29.67 "Hg8 mi
1:53 am78 °FLight rain. Passing clouds.6 mph93%29.67 "Hg8 mi
12:53 am78 °FClear.6 mph90%29.69 "Hg10 mi
11:53 pm
Thu, Jul 18
78 °FClear.3 mph87%29.71 "Hg10 mi
10:53 pm79 °FClear.6 mph84%29.71 "Hg10 mi
9:53 pm79 °FClear.5 mph88%29.71 "Hg10 mi
8:53 pm80 °FClear.5 mph81%29.70 "Hg10 mi
7:53 pm82 °FScattered clouds.6 mph77%29.70 "Hg10 mi
6:53 pm82 °FMostly cloudy.8 mph77%29.69 "Hg10 mi
5:53 pm83 °FMore clouds than sun.8 mph72%29.69 "Hg10 mi
4:53 pm82 °FOvercast.9 mph74%29.70 "Hg10 mi
Weather by CustomWeather, © 2019

See weather overview